Regional Weather Roundup
Issued by NWS

Home | Current Version | Previous Version | Graphics & Text | Print | Product List | Glossary On
Versions: 1 2 3 4 5 6 7 8 9 10 11 12 13 14 15 16 17 18 19 20 21 22 23 24 25 26 27 28 29 30 31 32 33 34 35 36 37 38 39 40 41 42 43 44 45 46 47 48 49 50
180
ASUS45 KSLC 100510
RWRUT

UTAH REGIONAL WEATHER ROUNDUP
NATIONAL WEATHER SERVICE SALT LAKE CITY UT
1000 PM MST FRI DEC 09 2016

UTZ001>011-023>025-100600-

NORTHERN UTAH

CITY           SKY/WX    TMP DP  RH WIND       PRES   REMARKS
BRIGHAM CITY     N/A     33  31  92 CALM      30.06F
HILL AFB       CLOUDY    38  30  71 SE5       30.06F WCI  35
LOGAN          CLOUDY    34  34 100 CALM      30.06F
OGDEN          CLOUDY    33  31  92 CALM      30.06F
SALT LAKE CITY MOCLDY    32  29  88 N7        30.07R WCI  26
WENDOVER       MOCLDY    27  21  80 NE5       30.07S WCI  21
HEBER CITY     MOCLDY    30  27  86 E6        30.08F WCI  24

$$

UTZ011>015-024>027-100600-

CENTRAL/NORTHEAST UTAH

CITY           SKY/WX    TMP DP  RH WIND       PRES   REMARKS
PROVO AIRPORT  MOCLDY    36  30  79 E5        30.12S WCI  32
MOAB/CANYONLAN MOCLDY    23  10  57 CALM      30.23S
DELTA          CLOUDY    43  30  61 S14       30.11F
PRICE          PTCLDY    23  12  62 NE5       30.21F WCI  17
RICHFIELD      CLOUDY    30  25  80 CALM      30.16
ROOSEVELT      CLOUDY    19  16  86 W3        30.21F
VERNAL         CLOUDY    19  14  81 W3        30.18F

$$

UTZ013>016-019>022-027-100600-

SOUTHERN UTAH

CITY           SKY/WX    TMP DP  RH WIND       PRES   REMARKS
BRYCE CANYON   CLEAR     15  13  91 SW5       30.25S WCI   8
CEDAR CITY     PTCLDY    36  29  75 CALM      30.18S
MILFORD        PTCLDY    39  32  76 SW23      30.15S WCI  28
ST GEORGE      MOCLDY    41  25  52 CALM      30.25R
HANKSVILLE     PTCLDY    23   9  54 MISG      30.28R
KANAB          PTCLDY    30  27  86 NE5       30.28S WCI  25
BLANDING       PTCLDY    30  20  66 N6        30.33S WCI  24

$$

REGIONAL REPORTS     COLORADO/ARIZONA

CITY           SKY/WX    TMP DP  RH WIND       PRES   REMARKS
CRAIG, CO      CLOUDY    29  24  82 SE5       30.14S WCI  24
GRAND JUNCTION CLOUDY    25  19  78 E5        30.23F WCI  19
RIFLE, CO      CLOUDY    25  20  81 SE3       30.24S
MONTROSE, CO   CLOUDY    24  19  81 SE6       30.25F WCI  17
CORTEZ, CO     CLOUDY    26  23  88 E3        30.27S
COLORADO CITY    N/A     30  28  93 CALM      30.26S
PAGE, AZ       MOCLDY    37  16  42 SW5       30.23S WCI  33
GRAND CANYON   PTCLDY    27  25  92 CALM      30.26F
KINGMAN, AZ    CLEAR     38  28  67 SW6       30.21S WCI  33
FLAGSTAFF, AZ  PTCLDY    26  24  92 CALM      30.29R

$$

REGIONAL REPORTS    NEVADA/IDAHO/WYOMING

CITY           SKY/WX    TMP DP  RH WIND       PRES   REMARKS
LAS VEGAS, NV  PTCLDY    49  13  23 CALM      30.23R
ELY, NY        PTCLDY    26  20  77 SE3       30.18R
ELKO, NV       CLOUDY    34  27  75 MISG      30.05S
POCATELLO, ID  LGT RAIN  38  33  82 S16       30.00F WCI  29
BURLEY, ID     LGT RAIN  39  33  79 SW10      29.98S WCI  32
FORT BRIDGER,  CLEAR     32  25  74 W6        30.06F WCI  26
EVANSTON, WY   CLOUDY    32  23  69 SW15      30.06S WCI  22
ROCK SPRINGS,  CLOUDY    32  25  75 W13       30.05F WCI  22
KEMMERER, WY     N/A     30  28  93 W10       30.04F WCI  21

$$




USA.gov is the U.S. government's official web portal to all federal, state and local government web resources and services.